Time,TemperatureF,DewpointF,PressureIn,WindDirection,WindDirectionDegrees,WindSpeedMPH,WindSpeedGustMPH,Humidity,HourlyPrecipIn,Conditions,Clouds,dailyrainin,SoftwareType,DateUTC
2015-05-22 00:03:00,51.0,48.0,-100.00,WNW,290,0.0,0.0,91,-99.99,,,-99.99,,2015-05-22 04:03:00,
2015-05-22 00:11:00,51.0,48.0,-100.00,WNW,290,0.0,0.0,91,-99.99,,,-99.99,,2015-05-22 04:11:00,
2015-05-22 00:21:00,51.0,48.0,-100.00,WNW,290,0.0,0.0,91,-99.99,,,-99.99,,2015-05-22 04:21:00,
2015-05-22 00:42:00,50.0,48.0,-100.00,WNW,295,0.0,0.0,91,-99.99,,,-99.99,,2015-05-22 04:42:00,
2015-05-22 00:51:00,50.0,48.0,-100.00,WNW,295,0.0,0.0,91,-99.99,,,-99.99,,2015-05-22 04:51:00,
2015-05-22 01:22:00,50.0,47.0,-100.00,WSW,255,0.0,0.0,91,-99.99,,,-99.99,,2015-05-22 05:22:00,
2015-05-22 01:32:00,50.0,47.0,-100.00,WSW,255,0.0,0.0,91,-99.99,,,-99.99,,2015-05-22 05:32:00,
2015-05-22 01:42:00,49.0,46.0,-100.00,WSW,240,0.0,0.0,91,-99.99,,,-99.99,,2015-05-22 05:42:00,
2015-05-22 01:52:00,49.0,46.0,-100.00,West,275,0.0,1.0,91,-99.99,,,-99.99,,2015-05-22 05:52:00,
2015-05-22 02:03:00,49.0,47.0,-100.00,WSW,240,0.0,0.0,91,-99.99,,,-99.99,,2015-05-22 06:03:00,
2015-05-22 02:22:00,49.0,47.0,-100.00,WSW,250,0.0,0.0,91,-99.99,,,-99.99,,2015-05-22 06:22:00,
2015-05-22 02:32:00,49.0,47.0,-100.00,WSW,250,0.0,0.0,91,-99.99,,,-99.99,,2015-05-22 06:32:00,
2015-05-22 02:42:00,49.0,47.0,-100.00,WSW,250,0.0,0.0,91,-99.99,,,-99.99,,2015-05-22 06:42:00,
2015-05-22 02:51:00,49.0,47.0,-100.00,WSW,250,0.0,0.0,91,-99.99,,,-99.99,,2015-05-22 06:51:00,
2015-05-22 03:03:00,49.0,47.0,-100.00,WSW,250,0.0,0.0,91,-99.99,,,-99.99,,2015-05-22 07:03:00,
2015-05-22 03:42:00,49.0,47.0,-100.00,West,270,1.0,6.0,91,-99.99,,,-99.99,,2015-05-22 07:42:00,
2015-05-22 03:52:00,49.0,47.0,-100.00,West,280,1.0,6.0,91,-99.99,,,-99.99,,2015-05-22 07:52:00,
2015-05-22 04:03:00,49.0,47.0,-100.00,West,280,1.0,6.0,91,-99.99,,,-99.99,,2015-05-22 08:03:00,
2015-05-22 04:21:00,49.0,47.0,-100.00,West,275,0.0,3.0,91,-99.99,,,-99.99,,2015-05-22 08:21:00,
2015-05-22 04:31:00,49.0,47.0,-100.00,West,275,0.0,3.0,91,-99.99,,,-99.99,,2015-05-22 08:31:00,
2015-05-22 04:41:00,49.0,47.0,-100.00,West,270,0.0,0.0,91,-99.99,,,-99.99,,2015-05-22 08:41:00,
2015-05-22 05:03:00,49.0,47.0,-100.00,West,280,0.0,0.0,91,-99.99,,,-99.99,,2015-05-22 09:03:00,
2015-05-22 05:21:00,49.0,46.0,-100.00,West,265,0.0,4.0,91,-99.99,,,-99.99,,2015-05-22 09:21:00,
2015-05-22 05:32:00,49.0,47.0,-100.00,WNW,285,0.0,2.0,91,-99.99,,,-99.99,,2015-05-22 09:32:00,
2015-05-22 05:51:00,49.0,47.0,-100.00,West,280,0.0,3.0,91,-99.99,,,-99.99,,2015-05-22 09:51:00,
2015-05-22 06:03:00,49.0,47.0,-100.00,West,280,0.0,3.0,91,-99.99,,,-99.99,,2015-05-22 10:03:00,
2015-05-22 06:32:00,49.0,46.0,-100.00,WNW,285,0.0,1.0,91,-99.99,,,-99.99,,2015-05-22 10:32:00,
2015-05-22 06:51:00,51.0,46.0,-100.00,West,275,1.0,8.0,85,-99.99,,,-99.99,,2015-05-22 10:51:00,
2015-05-22 07:02:00,51.0,46.0,-100.00,West,270,1.0,7.0,82,-99.99,,,-99.99,,2015-05-22 11:02:00,
2015-05-22 07:42:00,52.0,45.0,-100.00,West,275,0.0,9.0,77,-99.99,,,-99.99,,2015-05-22 11:42:00,
2015-05-22 07:52:00,52.0,45.0,-100.00,West,275,0.0,9.0,77,-99.99,,,-99.99,,2015-05-22 11:52:00,
2015-05-22 08:32:00,55.0,45.0,-100.00,West,270,1.0,6.0,68,-99.99,,,-99.99,,2015-05-22 12:32:00,
2015-05-22 08:42:00,55.0,44.0,-100.00,WNW,290,1.0,5.0,65,-99.99,,,-99.99,,2015-05-22 12:42:00,